Погода в Центральном

Россия / Костромская область     59°00′58″N   45°04′18″E
темп.,
°C
ветер,
м/с
пор.,
м/с
влажн.,
%
обл.,
%
осадки,
мм/ч
давл.,
гПа
погр.,
м
18 апреля, вс
вс1800:00+3ссв23840 0.0 102853
03:00+2ссв27835 0.0 1028116
06:00+2ссв39845 0.0 1028258
09:00+6св567478 0.0 1029813
12:00+4св4676100 0.0 10301036
15:00+7всв465287 0.0 10301476
18:00+5всв485033 0.0 1031694
21:00+1всв3107162 0.0 1032292
19 апреля, пн
пн1900:00−1всв311765 0.0 1034376
03:00−1всв310720 0.0 1034369
06:00−1всв410670 0.0 1035414
09:00+3в58440 0.0 10351264
12:00+6в57385 0.0 10351566
15:00+7в46375 0.0 10341636
18:00+5в37470 0.0 1034716
21:000в29710 0.0 1035172
20 апреля, вт
вт2000:00−1в29730 0.0 1035196
03:00−1в39710 0.0 1036232
06:000в39620 0.0 1035312
09:00+5вюв47350 0.0 10351005
12:00+8вюв57300 0.0 10331356
15:00+9юв46300 0.0 10321481
18:00+7вюв38420 0.0 1030444
21:00+3вюв412613 0.0 1030326
21 апреля, ср
ср2100:00+2вюв41364100 0.0 1030373
03:00+1вюв4156575 0.0 1028429
06:00+1вюв61658100 0.0 1026696
09:00+6юв71643100 0.0 10241049
12:00+9юв8173898 0.0 10211216
15:00+8ююв71747100 0.0 10201445
18:00+4юв81682100 0.3 10201030
21:00+4юв71586100 0.4 1019988
22 апреля, чт
чт2200:00+4ююв61589100 0.2 1018937
03:00+4ююв61492100 0.2 1019813
06:00+5ююв51392100 0.0 1019879
09:00+5ю51290100 0.1 10201127
12:00+8ю51273100 0.1 10221410
15:00+10ююз51063100 0.3 10221452
18:00+9ю4968100 0.2 1023648
21:00+6ю3108798 0.3 1025314